Time,TemperatureF,DewpointF,PressureIn,WindDirection,WindDirectionDegrees,WindSpeedMPH,WindSpeedGustMPH,Humidity,HourlyPrecipIn,Conditions,Clouds,dailyrainin,SoftwareType,DateUTC
2013-03-17 00:03:00,67.0,40.0,-100.00,West,260,8.0,14.0,37,-99.99,,,-99.99,,2013-03-17 04:03:00,
2013-03-17 00:13:00,67.0,40.0,-100.00,West,270,7.0,14.0,38,-99.99,,,-99.99,,2013-03-17 04:13:00,
2013-03-17 00:23:00,67.0,40.0,-100.00,West,270,6.0,11.0,38,-99.99,,,-99.99,,2013-03-17 04:23:00,
2013-03-17 00:33:00,67.0,40.0,-100.00,WSW,255,6.0,11.0,38,-99.99,,,-99.99,,2013-03-17 04:33:00,
2013-03-17 00:43:00,66.0,41.0,-100.00,West,260,6.0,13.0,39,-99.99,,,-99.99,,2013-03-17 04:43:00,
2013-03-17 00:53:00,65.0,40.0,-100.00,WSW,255,4.0,12.0,39,-99.99,,,-99.99,,2013-03-17 04:53:00,
2013-03-17 01:03:00,65.0,40.0,-100.00,WSW,245,3.0,8.0,40,-99.99,,,-99.99,,2013-03-17 05:03:00,
2013-03-17 01:12:00,64.0,39.0,-100.00,WSW,255,5.0,8.0,40,-99.99,,,-99.99,,2013-03-17 05:12:00,
2013-03-17 01:22:00,64.0,39.0,-100.00,West,260,5.0,10.0,40,-99.99,,,-99.99,,2013-03-17 05:22:00,
2013-03-17 01:32:00,64.0,40.0,-100.00,WSW,250,4.0,9.0,41,-99.99,,,-99.99,,2013-03-17 05:32:00,
2013-03-17 01:42:00,63.0,39.0,-100.00,WSW,250,4.0,7.0,41,-99.99,,,-99.99,,2013-03-17 05:42:00,
2013-03-17 01:52:00,63.0,39.0,-100.00,WSW,255,5.0,8.0,42,-99.99,,,-99.99,,2013-03-17 05:52:00,
2013-03-17 02:02:00,63.0,39.0,-100.00,West,270,5.0,10.0,42,-99.99,,,-99.99,,2013-03-17 06:02:00,
2013-03-17 02:12:00,63.0,39.0,-100.00,West,270,6.0,8.0,42,-99.99,,,-99.99,,2013-03-17 06:12:00,
2013-03-17 02:22:00,62.0,39.0,-100.00,West,270,4.0,9.0,42,-99.99,,,-99.99,,2013-03-17 06:22:00,
2013-03-17 02:32:00,62.0,39.0,-100.00,NW,320,4.0,9.0,42,-99.99,,,-99.99,,2013-03-17 06:32:00,
2013-03-17 02:42:00,62.0,39.0,-100.00,West,280,4.0,9.0,43,-99.99,,,-99.99,,2013-03-17 06:42:00,
2013-03-17 02:52:00,62.0,39.0,-100.00,West,260,6.0,12.0,43,-99.99,,,-99.99,,2013-03-17 06:52:00,
2013-03-17 03:02:00,62.0,39.0,-100.00,West,275,6.0,14.0,43,-99.99,,,-99.99,,2013-03-17 07:02:00,
2013-03-17 03:12:00,62.0,39.0,-100.00,NW,315,5.0,12.0,43,-99.99,,,-99.99,,2013-03-17 07:12:00,
2013-03-17 03:22:00,62.0,39.0,-100.00,West,260,4.0,11.0,43,-99.99,,,-99.99,,2013-03-17 07:22:00,
2013-03-17 03:32:00,62.0,40.0,-100.00,West,260,5.0,10.0,44,-99.99,,,-99.99,,2013-03-17 07:32:00,
2013-03-17 03:42:00,62.0,39.0,-100.00,West,260,4.0,10.0,44,-99.99,,,-99.99,,2013-03-17 07:42:00,
2013-03-17 03:52:00,61.0,40.0,-100.00,NW,305,4.0,7.0,45,-99.99,,,-99.99,,2013-03-17 07:52:00,
2013-03-17 04:03:00,61.0,39.0,-100.00,NNW,345,1.0,5.0,45,-99.99,,,-99.99,,2013-03-17 08:03:00,
2013-03-17 04:13:00,61.0,39.0,-100.00,NW,320,1.0,7.0,45,-99.99,,,-99.99,,2013-03-17 08:13:00,
2013-03-17 04:22:00,60.0,39.0,-100.00,WSW,245,2.0,4.0,46,-99.99,,,-99.99,,2013-03-17 08:22:00,
2013-03-17 04:33:00,60.0,40.0,-100.00,West,260,2.0,6.0,47,-99.99,,,-99.99,,2013-03-17 08:33:00,
2013-03-17 04:42:00,60.0,39.0,-100.00,NW,315,0.0,4.0,47,-99.99,,,-99.99,,2013-03-17 08:42:00,
2013-03-17 04:52:00,59.0,40.0,-100.00,West,260,1.0,2.0,48,-99.99,,,-99.99,,2013-03-17 08:52:00,
2013-03-17 05:03:00,59.0,39.0,-100.00,West,260,2.0,4.0,48,-99.99,,,-99.99,,2013-03-17 09:03:00,
2013-03-17 05:13:00,59.0,40.0,-100.00,NNE,30,1.0,4.0,49,-99.99,,,-99.99,,2013-03-17 09:13:00,
2013-03-17 05:22:00,58.0,40.0,-100.00,WNW,290,1.0,1.0,50,-99.99,,,-99.99,,2013-03-17 09:22:00,
2013-03-17 05:32:00,57.0,39.0,-100.00,SW,235,0.0,3.0,51,-99.99,,,-99.99,,2013-03-17 09:32:00,
2013-03-17 05:43:00,57.0,40.0,-100.00,WSW,245,1.0,3.0,53,-99.99,,,-99.99,,2013-03-17 09:43:00,
2013-03-17 05:53:00,56.0,40.0,-100.00,SW,230,2.0,5.0,54,-99.99,,,-99.99,,2013-03-17 09:53:00,
2013-03-17 06:03:00,56.0,40.0,-100.00,SW,230,2.0,5.0,55,-99.99,,,-99.99,,2013-03-17 10:03:00,
2013-03-17 06:13:00,56.0,41.0,-100.00,SW,230,3.0,6.0,55,-99.99,,,-99.99,,2013-03-17 10:13:00,
2013-03-17 06:23:00,57.0,41.0,-100.00,West,275,0.0,5.0,55,-99.99,,,-99.99,,2013-03-17 10:23:00,
2013-03-17 06:33:00,57.0,41.0,-100.00,West,280,1.0,4.0,54,-99.99,,,-99.99,,2013-03-17 10:33:00,
2013-03-17 06:42:00,58.0,41.0,-100.00,West,280,2.0,8.0,54,-99.99,,,-99.99,,2013-03-17 10:42:00,
2013-03-17 06:52:00,58.0,41.0,-100.00,WNW,285,4.0,7.0,54,-99.99,,,-99.99,,2013-03-17 10:52:00,
2013-03-17 07:03:00,57.0,41.0,-100.00,WNW,290,1.0,6.0,55,-99.99,,,-99.99,,2013-03-17 11:03:00,
2013-03-17 07:12:00,56.0,41.0,-100.00,West,275,1.0,3.0,55,-99.99,,,-99.99,,2013-03-17 11:12:00,
2013-03-17 07:22:00,56.0,41.0,-100.00,WSW,255,1.0,2.0,57,-99.99,,,-99.99,,2013-03-17 11:22:00,
2013-03-17 07:32:00,55.0,41.0,-100.00,SW,235,1.0,5.0,58,-99.99,,,-99.99,,2013-03-17 11:32:00,
2013-03-17 07:42:00,56.0,41.0,-100.00,SW,235,3.0,6.0,58,-99.99,,,-99.99,,2013-03-17 11:42:00,
2013-03-17 07:52:00,55.0,41.0,-100.00,WSW,245,4.0,6.0,58,-99.99,,,-99.99,,2013-03-17 11:52:00,
2013-03-17 08:02:00,55.0,41.0,-100.00,West,265,4.0,7.0,59,-99.99,,,-99.99,,2013-03-17 12:02:00,
2013-03-17 08:12:00,55.0,41.0,-100.00,West,270,3.0,6.0,59,-99.99,,,-99.99,,2013-03-17 12:12:00,
2013-03-17 08:22:00,56.0,41.0,-100.00,West,260,4.0,8.0,59,-99.99,,,-99.99,,2013-03-17 12:22:00,
2013-03-17 08:33:00,56.0,42.0,-100.00,West,270,4.0,10.0,58,-99.99,,,-99.99,,2013-03-17 12:33:00,
2013-03-17 08:43:00,56.0,42.0,-100.00,West,270,4.0,8.0,58,-99.99,,,-99.99,,2013-03-17 12:43:00,
2013-03-17 08:52:00,56.0,42.0,-100.00,West,280,4.0,6.0,58,-99.99,,,-99.99,,2013-03-17 12:52:00,
2013-03-17 09:02:00,56.0,42.0,-100.00,WSW,250,4.0,6.0,58,-99.99,,,-99.99,,2013-03-17 13:02:00,
2013-03-17 09:13:00,57.0,42.0,-100.00,West,275,5.0,9.0,58,-99.99,,,-99.99,,2013-03-17 13:13:00,
2013-03-17 09:22:00,58.0,43.0,-100.00,West,270,4.0,9.0,58,-99.99,,,-99.99,,2013-03-17 13:22:00,
2013-03-17 09:32:00,58.0,44.0,-100.00,West,260,2.0,9.0,58,-99.99,,,-99.99,,2013-03-17 13:32:00,
2013-03-17 09:43:00,59.0,44.0,-100.00,West,270,3.0,6.0,57,-99.99,,,-99.99,,2013-03-17 13:43:00,
2013-03-17 09:52:00,61.0,45.0,-100.00,WNW,295,4.0,7.0,55,-99.99,,,-99.99,,2013-03-17 13:52:00,
2013-03-17 10:02:00,62.0,45.0,-100.00,WSW,240,4.0,7.0,54,-99.99,,,-99.99,,2013-03-17 14:02:00,
2013-03-17 10:12:00,64.0,46.0,-100.00,West,270,1.0,10.0,52,-99.99,,,-99.99,,2013-03-17 14:12:00,
2013-03-17 10:22:00,65.0,46.0,-100.00,West,275,5.0,9.0,51,-99.99,,,-99.99,,2013-03-17 14:22:00,
2013-03-17 10:33:00,65.0,46.0,-100.00,West,265,5.0,11.0,50,-99.99,,,-99.99,,2013-03-17 14:33:00,
2013-03-17 10:42:00,66.0,47.0,-100.00,WNW,290,6.0,11.0,49,-99.99,,,-99.99,,2013-03-17 14:42:00,
2013-03-17 10:52:00,66.0,46.0,-100.00,SW,235,4.0,13.0,49,-99.99,,,-99.99,,2013-03-17 14:52:00,
2013-03-17 11:02:00,68.0,47.0,-100.00,West,270,6.0,11.0,48,-99.99,,,-99.99,,2013-03-17 15:02:00,
2013-03-17 11:12:00,69.0,48.0,-100.00,West,270,5.0,11.0,47,-99.99,,,-99.99,,2013-03-17 15:12:00,
2013-03-17 11:23:00,69.0,48.0,-100.00,West,275,4.0,9.0,47,-99.99,,,-99.99,,2013-03-17 15:23:00,
2013-03-17 11:33:00,70.0,48.0,-100.00,West,265,5.0,11.0,46,-99.99,,,-99.99,,2013-03-17 15:33:00,
2013-03-17 11:43:00,72.0,49.0,-100.00,WNW,295,4.0,8.0,45,-99.99,,,-99.99,,2013-03-17 15:43:00,
2013-03-17 11:53:00,72.0,49.0,-100.00,SW,230,7.0,11.0,44,-99.99,,,-99.99,,2013-03-17 15:53:00,
2013-03-17 12:03:00,71.0,48.0,-100.00,WSW,250,2.0,11.0,44,-99.99,,,-99.99,,2013-03-17 16:03:00,
2013-03-17 12:13:00,71.0,48.0,-100.00,West,265,9.0,13.0,44,-99.99,,,-99.99,,2013-03-17 16:13:00,
2013-03-17 12:23:00,74.0,50.0,-100.00,WNW,285,6.0,11.0,43,-99.99,,,-99.99,,2013-03-17 16:23:00,
2013-03-17 12:33:00,74.0,50.0,-100.00,West,260,6.0,11.0,42,-99.99,,,-99.99,,2013-03-17 16:33:00,
2013-03-17 12:43:00,73.0,49.0,-100.00,SW,235,7.0,14.0,43,-99.99,,,-99.99,,2013-03-17 16:43:00,
2013-03-17 12:52:00,73.0,49.0,-100.00,West,270,8.0,15.0,42,-99.99,,,-99.99,,2013-03-17 16:52:00,
2013-03-17 13:03:00,76.0,50.0,-100.00,WSW,245,4.0,17.0,41,-99.99,,,-99.99,,2013-03-17 17:03:00,
2013-03-17 13:12:00,74.0,49.0,-100.00,SW,220,4.0,12.0,42,-99.99,,,-99.99,,2013-03-17 17:12:00,
2013-03-17 13:22:00,76.0,50.0,-100.00,SW,235,0.0,9.0,41,-99.99,,,-99.99,,2013-03-17 17:22:00,
2013-03-17 13:33:00,78.0,51.0,-100.00,NW,310,4.0,14.0,40,-99.99,,,-99.99,,2013-03-17 17:33:00,
2013-03-17 13:42:00,77.0,51.0,-100.00,West,270,6.0,13.0,40,-99.99,,,-99.99,,2013-03-17 17:42:00,
2013-03-17 13:52:00,78.0,51.0,-100.00,West,280,6.0,14.0,39,-99.99,,,-99.99,,2013-03-17 17:52:00,
2013-03-17 14:02:00,78.0,50.0,-100.00,WNW,295,2.0,12.0,38,-99.99,,,-99.99,,2013-03-17 18:02:00,
2013-03-17 14:12:00,77.0,50.0,-100.00,WNW,300,6.0,19.0,38,-99.99,,,-99.99,,2013-03-17 18:12:00,
2013-03-17 14:22:00,77.0,50.0,-100.00,WNW,295,5.0,10.0,39,-99.99,,,-99.99,,2013-03-17 18:22:00,
2013-03-17 14:32:00,77.0,49.0,-100.00,WNW,300,6.0,15.0,38,-99.99,,,-99.99,,2013-03-17 18:32:00,
2013-03-17 14:42:00,75.0,49.0,-100.00,SW,235,13.0,22.0,40,-99.99,,,-99.99,,2013-03-17 18:42:00,
2013-03-17 14:52:00,75.0,49.0,-100.00,SW,215,10.0,19.0,40,-99.99,,,-99.99,,2013-03-17 18:52:00,
2013-03-17 15:02:00,75.0,49.0,-100.00,SW,235,6.0,19.0,40,-99.99,,,-99.99,,2013-03-17 19:02:00,
2013-03-17 15:12:00,76.0,49.0,-100.00,WSW,240,9.0,21.0,39,-99.99,,,-99.99,,2013-03-17 19:12:00,
2013-03-17 15:22:00,75.0,49.0,-100.00,West,260,6.0,23.0,40,-99.99,,,-99.99,,2013-03-17 19:22:00,
2013-03-17 15:33:00,74.0,48.0,-100.00,SW,230,11.0,20.0,40,-99.99,,,-99.99,,2013-03-17 19:33:00,
2013-03-17 15:42:00,74.0,49.0,-100.00,WSW,250,10.0,20.0,41,-99.99,,,-99.99,,2013-03-17 19:42:00,
2013-03-17 15:53:00,73.0,48.0,-100.00,WSW,255,8.0,19.0,41,-99.99,,,-99.99,,2013-03-17 19:53:00,
2013-03-17 16:02:00,73.0,48.0,-100.00,West,260,9.0,18.0,41,-99.99,,,-99.99,,2013-03-17 20:02:00,
2013-03-17 16:12:00,72.0,47.0,-100.00,WSW,255,11.0,21.0,41,-99.99,,,-99.99,,2013-03-17 20:12:00,
2013-03-17 16:22:00,72.0,48.0,-100.00,SW,235,14.0,23.0,42,-99.99,,,-99.99,,2013-03-17 20:22:00,
2013-03-17 16:33:00,73.0,48.0,-100.00,WSW,250,8.0,21.0,41,-99.99,,,-99.99,,2013-03-17 20:33:00,
2013-03-17 16:42:00,73.0,48.0,-100.00,WSW,250,10.0,17.0,41,-99.99,,,-99.99,,2013-03-17 20:42:00,
2013-03-17 16:52:00,74.0,48.0,-100.00,West,270,11.0,19.0,40,-99.99,,,-99.99,,2013-03-17 20:52:00,
2013-03-17 17:03:00,74.0,48.0,-100.00,West,270,9.0,19.0,40,-99.99,,,-99.99,,2013-03-17 21:03:00,
2013-03-17 17:12:00,74.0,48.0,-100.00,WSW,255,11.0,23.0,40,-99.99,,,-99.99,,2013-03-17 21:12:00,
2013-03-17 17:23:00,74.0,48.0,-100.00,WSW,250,8.0,21.0,40,-99.99,,,-99.99,,2013-03-17 21:23:00,
2013-03-17 17:33:00,73.0,48.0,-100.00,WSW,250,11.0,18.0,40,-99.99,,,-99.99,,2013-03-17 21:33:00,
2013-03-17 17:43:00,74.0,48.0,-100.00,SW,230,6.0,19.0,40,-99.99,,,-99.99,,2013-03-17 21:43:00,
2013-03-17 17:52:00,72.0,48.0,-100.00,WSW,250,8.0,19.0,42,-99.99,,,-99.99,,2013-03-17 21:52:00,
2013-03-17 18:03:00,72.0,48.0,-100.00,SW,235,8.0,21.0,42,-99.99,,,-99.99,,2013-03-17 22:03:00,
2013-03-17 18:13:00,73.0,48.0,-100.00,West,260,7.0,14.0,42,-99.99,,,-99.99,,2013-03-17 22:13:00,
2013-03-17 18:23:00,73.0,48.0,-100.00,West,260,11.0,21.0,41,-99.99,,,-99.99,,2013-03-17 22:23:00,
2013-03-17 18:33:00,72.0,48.0,-100.00,WSW,245,6.0,22.0,42,-99.99,,,-99.99,,2013-03-17 22:33:00,
2013-03-17 18:42:00,72.0,48.0,-100.00,WNW,295,9.0,14.0,42,-99.99,,,-99.99,,2013-03-17 22:42:00,
2013-03-17 18:52:00,71.0,48.0,-100.00,West,270,5.0,16.0,43,-99.99,,,-99.99,,2013-03-17 22:52:00,
2013-03-17 19:03:00,71.0,48.0,-100.00,West,260,11.0,20.0,43,-99.99,,,-99.99,,2013-03-17 23:03:00,
2013-03-17 19:12:00,71.0,48.0,-100.00,West,270,8.0,18.0,44,-99.99,,,-99.99,,2013-03-17 23:12:00,
2013-03-17 19:22:00,71.0,48.0,-100.00,SW,230,7.0,14.0,44,-99.99,,,-99.99,,2013-03-17 23:22:00,
2013-03-17 19:33:00,70.0,48.0,-100.00,WSW,245,6.0,13.0,45,-99.99,,,-99.99,,2013-03-17 23:33:00,
2013-03-17 19:43:00,70.0,48.0,-100.00,SW,235,6.0,14.0,45,-99.99,,,-99.99,,2013-03-17 23:43:00,
2013-03-17 19:52:00,70.0,48.0,-100.00,SW,235,8.0,14.0,46,-99.99,,,-99.99,,2013-03-17 23:52:00,
2013-03-17 20:03:00,69.0,48.0,-100.00,SW,235,6.0,14.0,46,-99.99,,,-99.99,,2013-03-18 00:03:00,
2013-03-17 20:13:00,69.0,47.0,-100.00,SW,225,5.0,13.0,46,-99.99,,,-99.99,,2013-03-18 00:13:00,
2013-03-17 20:22:00,69.0,48.0,-100.00,WSW,245,6.0,12.0,47,-99.99,,,-99.99,,2013-03-18 00:22:00,
2013-03-17 20:33:00,69.0,48.0,-100.00,WSW,245,6.0,12.0,47,-99.99,,,-99.99,,2013-03-18 00:33:00,
2013-03-17 20:42:00,68.0,48.0,-100.00,SW,225,4.0,8.0,48,-99.99,,,-99.99,,2013-03-18 00:42:00,
2013-03-17 20:52:00,68.0,49.0,-100.00,SW,220,5.0,9.0,50,-99.99,,,-99.99,,2013-03-18 00:52:00,
2013-03-17 21:02:00,68.0,49.0,-100.00,WSW,240,6.0,11.0,51,-99.99,,,-99.99,,2013-03-18 01:02:00,
2013-03-17 21:12:00,67.0,50.0,-100.00,SSW,210,2.0,11.0,53,-99.99,,,-99.99,,2013-03-18 01:12:00,
2013-03-17 21:22:00,67.0,49.0,-100.00,WSW,245,7.0,13.0,53,-99.99,,,-99.99,,2013-03-18 01:22:00,
2013-03-17 21:33:00,67.0,50.0,-100.00,SW,215,4.0,8.0,54,-99.99,,,-99.99,,2013-03-18 01:33:00,
2013-03-17 21:42:00,67.0,50.0,-100.00,SW,235,5.0,11.0,55,-99.99,,,-99.99,,2013-03-18 01:42:00,
2013-03-17 21:52:00,66.0,50.0,-100.00,SW,230,6.0,12.0,55,-99.99,,,-99.99,,2013-03-18 01:52:00,
2013-03-17 22:02:00,66.0,50.0,-100.00,WSW,240,7.0,14.0,56,-99.99,,,-99.99,,2013-03-18 02:02:00,
2013-03-17 22:12:00,66.0,50.0,-100.00,WSW,240,4.0,13.0,56,-99.99,,,-99.99,,2013-03-18 02:12:00,
2013-03-17 22:22:00,65.0,49.0,-100.00,WSW,255,5.0,11.0,56,-99.99,,,-99.99,,2013-03-18 02:22:00,
2013-03-17 22:32:00,65.0,50.0,-100.00,SSW,195,1.0,7.0,57,-99.99,,,-99.99,,2013-03-18 02:32:00,
2013-03-17 22:42:00,64.0,49.0,-100.00,East,90,7.0,14.0,59,-99.99,,,-99.99,,2013-03-18 02:42:00,
2013-03-17 22:52:00,61.0,48.0,-100.00,East,90,10.0,17.0,61,-99.99,,,-99.99,,2013-03-18 02:52:00,
2013-03-17 23:03:00,59.0,46.0,-100.00,ENE,70,6.0,18.0,62,-99.99,,,-99.99,,2013-03-18 03:03:00,
2013-03-17 23:12:00,57.0,45.0,-100.00,East,85,9.0,20.0,63,-99.99,,,-99.99,,2013-03-18 03:12:00,
2013-03-17 23:22:00,56.0,44.0,-100.00,ENE,75,7.0,18.0,64,-99.99,,,-99.99,,2013-03-18 03:22:00,
2013-03-17 23:33:00,55.0,43.0,-100.00,East,85,10.0,19.0,65,-99.99,,,-99.99,,2013-03-18 03:33:00,
2013-03-17 23:42:00,54.0,43.0,-100.00,East,80,11.0,24.0,66,-99.99,,,-99.99,,2013-03-18 03:42:00,
2013-03-17 23:53:00,54.0,43.0,-100.00,East,80,11.0,24.0,66,-99.99,,,-99.99,,2013-03-18 03:53:00,